When you browse on this site, cookies collect data to enhance your experience and personalize the content and advertising you see.
Visit our Privacy Policy to learn more. By continuing to use the site, you agree to this use of cookies and data.
  • In Hungary
  • List of Countries
  • For 7 days
  • Water Temperature
  • Weather Map
  • News
  • Weather Widgets
  • user-avatar
    Login

    Hourly Weather Verhnesezzhee

    Today, 14 October, Monday

    Time Temperature Precipitation Wind Pressure Humidity
    00:00 +8°C° 0 mm 4 mps 751 mmHg 92%
    01:00 +8°C° 0 mm 4 mps 752 mmHg 92%
    02:00 +7°C° 0 mm 4 mps 752 mmHg 91%
    03:00 +7°C° 0 mm 5 mps 752 mmHg 92%
    04:00 +7°C° 0 mm 5 mps 752 mmHg 92%
    05:00 +6°C° 0 mm 5 mps 753 mmHg 92%
    06:00 +6°C° 0 mm 5 mps 753 mmHg 91%
    07:00 +7°C° 0 mm 6 mps 753 mmHg 87%
    08:00 +8°C° 0 mm 6 mps 754 mmHg 83%
    09:00 +9°C° 0 mm 7 mps 754 mmHg 78%
    10:00 +10°C° 0 mm 7 mps 755 mmHg 76%
    11:00 +10°C° 0 mm 6 mps 755 mmHg 73%
    12:00 +10°C° 0 mm 6 mps 755 mmHg 70%
    13:00 +11°C° 0 mm 6 mps 756 mmHg 67%
    14:00 +13°C° 0 mm 6 mps 756 mmHg 65%
    15:00 +13°C° 0 mm 5 mps 756 mmHg 63%
    16:00 +12°C° 0 mm 5 mps 756 mmHg 68%
    17:00 +11°C° 0 mm 4 mps 757 mmHg 74%
    18:00 +10°C° 0 mm 3 mps 757 mmHg 80%
    19:00 +9°C° 0 mm 3 mps 757 mmHg 82%
    20:00 +9°C° 0 mm 3 mps 757 mmHg 84%
    21:00 +8°C° 0 mm 3 mps 758 mmHg 86%
    22:00 +8°C° 0 mm 3 mps 757 mmHg 87%
    23:00 +8°C° 0 mm 3 mps 757 mmHg 89%

    Tomorrow, 15 October, Tuesday

    Time Temperature Precipitation Wind Pressure Humidity
    00:00 +7°C° 0 mm 3 mps 757 mmHg 90%
    01:00 +7°C° 0.1 mm 4 mps 756 mmHg 88%
    02:00 +7°C° 0.1 mm 4 mps 756 mmHg 87%
    03:00 +8°C° 0.1 mm 5 mps 756 mmHg 85%
    04:00 +9°C° 0.6 mm 6 mps 754 mmHg 85%
    05:00 +9°C° 0.6 mm 7 mps 753 mmHg 84%
    06:00 +10°C° 0.6 mm 8 mps 752 mmHg 84%
    07:00 +11°C° 0.4 mm 8 mps 752 mmHg 84%
    08:00 +12°C° 0.4 mm 9 mps 751 mmHg 84%
    09:00 +13°C° 0.4 mm 9 mps 751 mmHg 84%
    10:00 +13°C° 0.1 mm 9 mps 750 mmHg 79%
    11:00 +15°C° 0.1 mm 9 mps 750 mmHg 73%
    12:00 +16°C° 0.1 mm 9 mps 750 mmHg 67%
    13:00 +16°C° 0 mm 9 mps 750 mmHg 68%
    14:00 +16°C° 0 mm 8 mps 750 mmHg 68%
    15:00 +16°C° 0 mm 8 mps 750 mmHg 69%
    16:00 +15°C° 0.1 mm 7 mps 751 mmHg 73%
    17:00 +14°C° 0.1 mm 7 mps 751 mmHg 76%
    18:00 +13°C° 0.1 mm 6 mps 752 mmHg 79%
    19:00 +11°C° 0 mm 6 mps 752 mmHg 82%
    20:00 +10°C° 0 mm 6 mps 753 mmHg 84%
    21:00 +9°C° 0 mm 6 mps 754 mmHg 87%
    22:00 +8°C° 0 mm 5 mps 755 mmHg 87%
    23:00 +7°C° 0 mm 5 mps 755 mmHg 88%

    Day after tomorrow, 16 October, Wednesday

    Time Temperature Precipitation Wind Pressure Humidity
    00:00 +6°C° 0 mm 4 mps 756 mmHg 88%
    01:00 +6°C° 0 mm 4 mps 757 mmHg 87%
    02:00 +5°C° 0 mm 5 mps 757 mmHg 86%
    03:00 +5°C° 0 mm 5 mps 758 mmHg 84%
    04:00 +3°C° 0 mm 5 mps 758 mmHg 80%
    05:00 +3°C° 0 mm 5 mps 759 mmHg 76%
    06:00 +3°C° 0 mm 5 mps 759 mmHg 71%
    07:00 +3°C° 0 mm 5 mps 760 mmHg 68%
    08:00 +3°C° 0 mm 5 mps 761 mmHg 64%
    09:00 +3°C° 0 mm 6 mps 761 mmHg 61%
    10:00 +5°C° 0 mm 5 mps 762 mmHg 61%
    11:00 +5°C° 0 mm 5 mps 762 mmHg 61%
    12:00 +6°C° 0 mm 5 mps 762 mmHg 62%
    13:00 +6°C° 0 mm 4 mps 763 mmHg 61%
    14:00 +6°C° 0 mm 4 mps 763 mmHg 61%
    15:00 +6°C° 0 mm 4 mps 763 mmHg 60%
    16:00 +5°C° 0 mm 3 mps 764 mmHg 65%
    17:00 +4°C° 0 mm 3 mps 764 mmHg 70%
    18:00 +5°C° 0 mm 2 mps 764 mmHg 75%
    19:00 +4°C° 0 mm 2 mps 765 mmHg 77%
    20:00 +4°C° 0 mm 2 mps 765 mmHg 79%
    21:00 +3°C° 0 mm 2 mps 765 mmHg 81%
    22:00 +4°C° 0 mm 1 mps 765 mmHg 82%
    23:00 +3°C° 0 mm 1 mps 765 mmHg 84%

    17 October, Thursday

    Time Temperature Precipitation Wind Pressure Humidity
    00:00 +2°C° 0 mm 0 mps 765 mmHg 85%
    01:00 +2°C° 0 mm 0 mps 765 mmHg 85%
    02:00 +3°C° 0 mm 1 mps 766 mmHg 85%
    03:00 +3°C° 0 mm 1 mps 766 mmHg 85%
    04:00 +3°C° 0 mm 1 mps 766 mmHg 86%
    05:00 +3°C° 0 mm 1 mps 766 mmHg 86%
    06:00 +2°C° 0 mm 1 mps 766 mmHg 87%
    07:00 +3°C° 0 mm 2 mps 766 mmHg 81%
    08:00 +3°C° 0 mm 3 mps 766 mmHg 76%
    09:00 +4°C° 0 mm 4 mps 766 mmHg 70%
    10:00 +5°C° 0 mm 4 mps 765 mmHg 66%
    11:00 +6°C° 0 mm 5 mps 765 mmHg 63%
    12:00 +7°C° 0 mm 5 mps 765 mmHg 59%
    13:00 +7°C° 0 mm 5 mps 764 mmHg 57%
    14:00 +7°C° 0 mm 6 mps 763 mmHg 56%
    15:00 +8°C° 0 mm 6 mps 763 mmHg 55%
    16:00 +7°C° 0 mm 6 mps 762 mmHg 57%
    17:00 +7°C° 0 mm 6 mps 762 mmHg 58%
    18:00 +5°C° 0 mm 6 mps 761 mmHg 60%
    19:00 +5°C° 0 mm 6 mps 761 mmHg 59%
    20:00 +5°C° 0 mm 7 mps 760 mmHg 59%
    21:00 +5°C° 0 mm 7 mps 760 mmHg 58%
    22:00 +5°C° 0 mm 7 mps 759 mmHg 58%
    23:00 +5°C° 0 mm 7 mps 759 mmHg 59%

    18 October, Friday

    Time Temperature Precipitation Wind Pressure Humidity
    00:00 +5°C° 0 mm 7 mps 758 mmHg 60%
    01:00 +5°C° 0 mm 7 mps 757 mmHg 61%
    02:00 +5°C° 0 mm 7 mps 757 mmHg 62%
    03:00 +4°C° 0 mm 7 mps 756 mmHg 64%
    04:00 +4°C° 0 mm 7 mps 756 mmHg 65%
    05:00 +4°C° 0 mm 7 mps 755 mmHg 67%
    06:00 +4°C° 0 mm 7 mps 754 mmHg 68%
    07:00 +5°C° 0.2 mm 7 mps 754 mmHg 72%
    08:00 +5°C° 0.2 mm 6 mps 754 mmHg 76%
    09:00 +5°C° 0.2 mm 6 mps 754 mmHg 80%
    10:00 +5°C° 1.1 mm 6 mps 754 mmHg 84%
    11:00 +7°C° 1.1 mm 5 mps 754 mmHg 88%
    12:00 +7°C° 1.1 mm 5 mps 754 mmHg 92%
    13:00 +6°C° 1.1 mm 5 mps 755 mmHg 84%
    14:00 +5°C° 1.1 mm 5 mps 755 mmHg 77%
    15:00 +5°C° 1.1 mm 5 mps 755 mmHg 69%
    16:00 +3°C° 0 mm 5 mps 756 mmHg 70%
    17:00 +2°C° 0 mm 5 mps 757 mmHg 72%
    18:00 +1°C° 0 mm 5 mps 757 mmHg 74%
    19:00 0°C° 0 mm 5 mps 758 mmHg 74%
    20:00 0°C° 0 mm 5 mps 758 mmHg 74%
    21:00 0°C° 0 mm 5 mps 759 mmHg 74%
    22:00 0°C° 0 mm 5 mps 759 mmHg 74%
    23:00 -1°C° 0 mm 5 mps 760 mmHg 74%

    19 October, Saturday

    Time Temperature Precipitation Wind Pressure Humidity
    00:00 -1°C° 0 mm 5 mps 760 mmHg 75%
    01:00 -2°C° 0 mm 5 mps 760 mmHg 76%
    02:00 -2°C° 0 mm 5 mps 761 mmHg 76%
    03:00 -2°C° 0 mm 5 mps 761 mmHg 77%
    04:00 -2°C° 0 mm 5 mps 762 mmHg 78%
    05:00 -4°C° 0 mm 5 mps 762 mmHg 80%
    06:00 -4°C° 0 mm 5 mps 763 mmHg 81%
    07:00 -2°C° 0 mm 5 mps 763 mmHg 77%
    08:00 -1°C° 0 mm 5 mps 763 mmHg 73%
    09:00 -1°C° 0 mm 5 mps 764 mmHg 68%
    10:00 0°C° 0 mm 5 mps 764 mmHg 64%
    11:00 +1°C° 0 mm 5 mps 764 mmHg 60%
    12:00 +2°C° 0 mm 5 mps 765 mmHg 56%
    13:00 +2°C° 0 mm 5 mps 765 mmHg 54%
    14:00 +3°C° 0 mm 4 mps 765 mmHg 52%
    15:00 +3°C° 0 mm 4 mps 765 mmHg 51%
    16:00 +1°C° 0 mm 4 mps 765 mmHg 56%
    17:00 +1°C° 0 mm 3 mps 766 mmHg 60%
    18:00 0°C° 0 mm 3 mps 766 mmHg 65%
    19:00 -1°C° 0 mm 2 mps 766 mmHg 67%
    20:00 -1°C° 0 mm 2 mps 766 mmHg 70%
    21:00 -1°C° 0 mm 2 mps 767 mmHg 72%
    22:00 0°C° 0 mm 1 mps 767 mmHg 72%
    23:00 0°C° 0 mm 1 mps 767 mmHg 72%
    Show more